Volver al catálogo

CZ-6A DEB

ActivoPO
NORAD 61270·DEBRIS·🇨🇳 China

Lanzado Aug 6, 2024 desde Taiyuan Satellite Launch Center

Loading…

Próximos Pases (próximas 24 horas)

TLE

ActualizadoSource: Space-Track

Época: Sep 14, 2026, 05:54 UTC

1 61270U 24140SF  26257.24605523  .00000939  00000-0  58166-3 0  9996
2 61270  88.8194 252.1269 0143893 353.5883   6.3448 13.99450119104705

Sigue CZ-6A DEB en tiempo real con AllMySat

Download on the App Store